Location: Goettingen
(51.5300°N, 9.9433°E)
Time: 20:12:15
(UTC+01:00)

ISS - Pass Details

Date: 19 January 2022
Orbit: 413 x 422 km, 51.6° (Epoch: 28 January)

Event Time Altitude Azimuth Distance (km) Brightness Sun altitude
Rises 19:00:39 0° 218° (SW) 2,338 0.7 -20.2°
Reaches altitude 10° 19:02:56 10° 205° (SSW) 1,480 -0.6 -20.6°
Enters shadow 19:04:39 21° 178° (S) 986 -1.9 -20.9°
